STARLINK-2575, 48396

Orbit data source: Space-Track

STARLINK-2575, 48396 is a payload satellite owned by SpaceX/Seattle (US) in LEO that was launched on Tue, 04 May 2021 UTC via an FALCON 9 launch vehicle from the Air Force Eastern Test Range (AFETR). Payload-class satellites include a variety of spacecraft equipped with specific instruments for various scientific and technological missions. These include communications satellites like Starlink; space stations such as the ISS; scientific satellites like the Hubble; Earth observation satellites from companies like Planet Labs, Umbra, and HawkEye 360; GPS; miniature CubeSats for education and research; and military/defense satellites.

Loading next visibility...
Identifier
48396, 2021-038AV
Orbit
LEO
Country
Flag of USUS
Related business
Manufacturer
SpaceX/Seattle
Mission
Operational Commercial Communications
Bus & Motor
STARLINK, Unknown motor
Mass
260 kg wet, ~248 kg dry
Launch date (UTC)
2021-05-04 (5 years ago)
Launch vehicle
FALCON 9
Launch site
Air Force Eastern Test Range (AFETR)
Object type
Payload
Rocket body
Debris
Shape & HBR
Box + 1 Pan, 10.1 m
Radar Cross Section
13.562 m², Large (>1 m²)

Expand to show TLE details & history
Last TLE update: 2 days ago

TLE from 2 days ago
0 STARLINK-2575
1 48396U 21038AV  26171.43305127 -.00000139  00000-0  72982-5 0  9993
2 48396  53.1583 214.5259 0001185  87.9219 272.1918 15.31697832284409
Epoch: 2026-06-20T10:23Z
TLE epoch observation values (Epoch: 2026-06-20T10:23:35.629Z)
Latitude
-0.00004°
Longitude
149.97967°
Altitude
471.616 km
Speed
7.631 km/s
True Right ascension
14h 18m 06s
True Declination
0° 00' 00"
Sunlit
Object was in full shadow at epoch
Visualization orbit readout
Latitude
Unknown
Longitude
Unknown
Altitude
Unknown
Speed
Unknown
Apparent Right ascension
Unknown
Apparent Declination
Unknown
Sunlit
N/A
Visualization observer readout
Local Sidereal Time
21:25:15
Azimuth
Unknown
Elevation
Unknown
Doppler factor
Unknown
Orbital elements
Apogee altitude
471.815 km
Perigee altitude
470.192 km
Semi-major axis
6,849.14 km
Eccentricity
0.00012
Inclination
53.1583°
RAAN
214.5259°
Arg. of periapsis
87.9219°
True anomaly
272.17823°
Mean anomaly
272.1918°
Eccentric anomaly
272.18502°
Mean motion
3.82903 °/min
Orbital period
94.02 mins
BSTAR
0.0000072982
Loading maneuver chart data...
Computing Atmospheric mass density...

Documentation

Showing up to 5 results
|